This demonstration page uses our WeatherBlox Daily Observations layout. Learn more.

Left ArrowRight Arrow

39.12711, -84.51439

Hourly Observations for July 7, 2021

Temp ( °F °C ) Dew Point ( °F °C ) Humidity (%) Winds ( mph kmh ) Pressure ( in mb ) Visibility ( mi km ) Precip ( " mm )
12:53 am 00:53 Clear with Mist and Fog 71 21.7 69 20.6 94 94 N N/A 30.04 1017 4 6 N/A
1:53 am 01:53 Clear with Mist and Fog 71 21.7 69 20.6 94 94 N N/A 30.04 1017 4 6 N/A
2:53 am 02:53 Clear with Mist and Fog 71 21.7 69 20.6 94 94 N N/A 30.02 1017 3 5 N/A
3:02 am 03:02 Clear with Mist and Fog 70 21.1 68 20 93 93 N N/A 30.03 1017 2 3 N/A
3:10 am 03:10 Clear with Mist and Fog 70 21.1 69 20.6 97 97 N N/A 30.03 1017 3 5 N/A
3:32 am 03:32 Clear with Mist and Fog 69 20.6 68 20 96 96 N N/A 30.03 1017 2 2 N/A
3:53 am 03:53 Clear with Mist and Fog 70 21.1 69 20.6 97 97 N N/A 30.03 1017 1 2 N/A
4:09 am 04:09 Clear with Mist and Fog 70 21.1 69 20.6 97 97 N N/A 30.03 1017 2 3 N/A
4:20 am 04:20 Clear with Mist and Fog 69 20.6 68 20 96 96 N N/A 30.02 1017 4 6 N/A
4:34 am 04:34 Clear with Mist and Fog 70 21.1 68 20 93 93 N N/A 30.02 1016 2 3 N/A
4:44 am 04:44 Clear with Mist and Fog 69 20.6 68 20 96 96 N N/A 30.02 1017 1 1 N/A
4:53 am 04:53 Clear with Mist and Fog 69 20.6 68 20 96 96 N N/A 30.01 1016 1 1 N/A
5:05 am 05:05 Clear with Mist and Fog 69 20.6 68 20 96 96 N N/A 30.02 1017 3 4 N/A
5:12 am 05:12 Clear with Mist and Fog 69 20.6 68 20 96 96 N N/A 30.02 1017 3 5 N/A
5:18 am 05:18 Clear with Mist and Fog 69 20.6 68 20 96 96 N N/A 30.01 1016 2 2 N/A
5:27 am 05:27 Clear with Mist and Fog 69 20.6 68 20 96 96 N N/A 30.01 1016 1 1 N/A
5:29 am 05:29 Mostly Cloudy with Mist and Fog 69 20.6 68 20 96 96 N N/A 30.01 1016 1 2 N/A
5:33 am 05:33 Mostly Clear with Mist and Fog 69 20.6 68 20 96 96 N N/A 30.01 1016 2 3 N/A
5:46 am 05:46 Partly Cloudy with Mist and Fog 68 20 67 19.4 96 96 N N/A 30.01 1016 3 5 N/A
5:53 am 05:53 Mostly Cloudy with Mist and Fog 69 20.6 68 20 96 96 N N/A 30.01 1016 3 5 N/A
6:30 am 06:30 Partly Cloudy with Mist and Fog 69 20.6 68 20 96 96 N N/A 30.02 1017 2 3 0.00 0.00
6:40 am 06:40 Mostly Cloudy with Mist and Fog 69 20.6 68 20 96 96 N N/A 30.02 1017 1 1 0.00 0.00
6:44 am 06:44 Mostly Cloudy with Mist and Fog 69 20.6 68 20 96 96 N N/A 30.02 1017 2 3 0.00 0.00
6:53 am 06:53 Cloudy with Mist and Fog 69 20.6 68 20 96 96 N N/A 30.02 1017 3 5 0.00 0.00
7:53 am 07:53 Partly Cloudy with Mist and Fog 71 21.7 70 21.1 96 96 N N/A 30.01 1016 4 6 0.00 0.00
8:53 am 08:53 Cloudy 75 23.9 69 20.6 82 82 SSW 8 13 30.02 1017 10 16 N/A
9:53 am 09:53 Mostly Sunny 80 26.7 70 21.1 71 71 SW 7 11 30.01 1016 10 16 0.00 0.00
10:53 am 10:53 Sunny 81 27.2 71 21.7 72 72 S 6 9 30.00 1016 10 16 N/A
11:53 am 11:53 Mostly Sunny 85 29.4 72 22.2 65 65 SW 6 9 30.00 1016 10 16 N/A
12:53 pm 12:53 Partly Cloudy 88 31.1 69 20.6 54 54 SW 7 11 29.98 1015 10 16 N/A
1:53 pm 13:53 Partly Cloudy 88 31.1 69 20.6 54 54 SSW 7 11 29.96 1015 10 16 N/A
2:53 pm 14:53 Partly Cloudy 87 30.6 67 19.4 51 51 S 12 19 29.94 1014 10 16 N/A
3:53 pm 15:53 Partly Cloudy 88 31.1 69 20.6 54 54 S 12 19 29.91 1013 10 16 N/A
4:53 pm 16:53 Partly Cloudy 86 30 67 19.4 53 53 S 15 24 29.89 1012 10 16 N/A
5:53 pm 17:53 Partly Cloudy 83 28.3 67 19.4 59 59 SSW 12 19 29.89 1012 10 16 N/A
6:17 pm 18:17 Cloudy with Light Rain 76 24.4 70 21.1 82 82 WSW 8 13 29.90 1013 7 11 0.03 0.76
6:53 pm 18:53 Mostly Cloudy with Light Rain 77 25 71 21.7 82 82 SSW 8 13 29.92 1013 7 11 0.03 0.76
7:53 pm 19:53 Partly Cloudy with Light Rain 79 26.1 71 21.7 77 77 SW 5 7 29.92 1013 10 16 0.00 0.00
8:53 pm 20:53 Partly Cloudy 77 25 68 20 74 74 S 8 13 29.93 1014 10 16 0.00 0.00
9:53 pm 21:53 Clear 75 23.9 68 20 79 79 S 7 11 29.92 1013 10 16 N/A
10:53 pm 22:53 Clear 72 22.2 67 19.4 84 84 SW 3 6 29.93 1014 10 16 N/A
11:53 pm 23:53 Clear 72 22.2 67 19.4 84 84 SSW 7 11 29.93 1013 10 16 N/A

Powered by AerisWeather